Weather History for Kendall, FL

Change the Weather History Date:

Saturday, November 9, 2013

  Actual Average Record
Temperature  
Mean Temperature 78 °F -  
Max Temperature 84 °F 81 °F 88 °F (1989)
Min Temperature 73 °F 63 °F 53 °F (1997)
Cooling Degree Days 14    
Growing Degree Days 28 (Base 50)    
Moisture  
Dew Point 73 °F    
Average Humidity 89    
Maximum Humidity 100    
Minimum Humidity 67    
Precipitation  
Precipitation 0.43 in - - ()
Sea Level Pressure  
Sea Level Pressure 30.06 in    
Wind  
Wind Speed 9 mph (NE)    
Max Wind Speed 21 mph    
Max Gust Speed 28 mph    
Visibility 9 miles    
Events Rain    
Averages and records for this station are not official NWS values.
T = Trace of Precipitation, MM = Missing Value Source: NWS Daily Summary

Daily Weather History Graph

Daily Weather History Graph

Search for Another Location

Airport:

Trip Planner

Search our weather history database for the weather conditions in past years. The results will help you decide how hot, cold, wet, or windy it might be!

Date:

Astronomy

Nov. 09, 2013 Rise Set
Actual Time 6:35 AM EST 5:35 PM EST
Civil Twilight 6:11 AM EST 5:59 PM EST
Nautical Twilight 5:43 AM EST 6:27 PM EST
Astronomical Twilight 5:16 AM EST 6:54 PM EST
Moon 12:17 PM EST (11/9) 11:55 PM EST (11/9)
Length of Visible Light 11h 48m
Length of Day
11h 00m
Waxing Crescent, 44% of the Moon is Illuminated
Nov 9
Waxing Crescent
Nov 10
First Quarter
Nov 17
Full
Nov 25
Last Quarter
Dec 2
New

Hourly Weather History & Observations

Time (EST) Temp. Heat Index Dew Point Humidity Pressure Visibility Wind Dir Wind Speed Gust Speed Precip Events Conditions
12:53 AM 75.9 °F - 73.0 °F 91% 30.02 in 10.0 mi NE 5.8 mph - N/A   Mostly Cloudy
1:17 AM 75.2 °F - 73.4 °F 94% 30.02 in 10.0 mi NE 6.9 mph - N/A   Overcast
1:37 AM 75.2 °F - 73.4 °F 94% 30.02 in 10.0 mi NE 5.8 mph - N/A   Overcast
1:53 AM 75.9 °F - 73.0 °F 91% 30.01 in 10.0 mi NE 4.6 mph - N/A   Mostly Cloudy
2:53 AM 75.0 °F - 73.0 °F 94% 30.01 in 10.0 mi NE 3.5 mph - N/A   Scattered Clouds
3:53 AM 75.0 °F - 72.0 °F 90% 30.01 in 10.0 mi NNE 3.5 mph - N/A   Mostly Cloudy
4:08 AM 75.2 °F - 71.6 °F 89% 30.01 in 10.0 mi NE 3.5 mph - N/A   Mostly Cloudy
4:20 AM 75.2 °F - 71.6 °F 89% 30.01 in 10.0 mi NE 4.6 mph - N/A   Scattered Clouds
4:53 AM 73.9 °F - 72.0 °F 93% 30.02 in 10.0 mi NE 3.5 mph - N/A   Scattered Clouds
5:53 AM 75.0 °F - 72.0 °F 90% 30.04 in 10.0 mi ENE 5.8 mph - N/A   Scattered Clouds
6:53 AM 75.9 °F - 72.0 °F 87% 30.05 in 10.0 mi East 9.2 mph - N/A   Mostly Cloudy
7:24 AM 78.8 °F - 73.4 °F 83% 30.06 in 10.0 mi ENE 9.2 mph - N/A   Mostly Cloudy
7:32 AM 78.8 °F - 71.6 °F 78% 30.06 in 10.0 mi ENE 12.7 mph 19.6 mph N/A   Mostly Cloudy
7:53 AM 80.1 °F 84.2 °F 73.0 °F 79% 30.07 in 10.0 mi ENE 16.1 mph 24.2 mph N/A   Scattered Clouds
8:21 AM 77.0 °F - 73.4 °F 89% 30.08 in 2.5 mi ENE 16.1 mph 23.0 mph 0.06 in Rain Heavy Rain
8:37 AM 75.2 °F - 73.4 °F 94% 30.08 in 4.0 mi ENE 13.8 mph - 0.10 in Rain Light Rain
8:53 AM 77.0 °F - 73.9 °F 90% 30.08 in 9.0 mi ENE 9.2 mph - 0.10 in Rain Light Rain
9:53 AM 78.1 °F - 75.0 °F 90% 30.10 in 10.0 mi ENE 10.4 mph - 0.00 in Rain Light Rain
10:53 AM 82.0 °F 86.3 °F 71.1 °F 69% 30.09 in 10.0 mi East 17.3 mph 25.3 mph 0.00 in   Partly Cloudy
11:41 AM 82.4 °F 87.2 °F 71.6 °F 70% 30.08 in 10.0 mi East 15.0 mph 24.2 mph N/A   Mostly Cloudy
11:50 AM 82.4 °F 87.2 °F 71.6 °F 70% 30.07 in 10.0 mi ENE 16.1 mph 23.0 mph N/A   Scattered Clouds
11:53 AM 84.0 °F 89.6 °F 72.0 °F 67% 30.07 in 10.0 mi ENE 20.7 mph - N/A   Mostly Cloudy
12:53 PM 82.0 °F 86.7 °F 72.0 °F 71% 30.05 in 10.0 mi ENE 16.1 mph - N/A   Mostly Cloudy
1:53 PM 82.0 °F 86.7 °F 72.0 °F 71% 30.04 in 10.0 mi East 16.1 mph - N/A   Scattered Clouds
2:45 PM 78.8 °F - 73.4 °F 83% 30.04 in 9.0 mi NE 11.5 mph - 0.00 in Rain Light Rain
2:53 PM 78.1 °F - 73.9 °F 87% 30.04 in 10.0 mi NE 11.5 mph - 0.00 in   Overcast
3:40 PM 80.6 °F 85.4 °F 73.4 °F 79% 30.04 in 10.0 mi NE 15.0 mph - 0.03 in   Mostly Cloudy
3:53 PM 81.0 °F 85.8 °F 73.0 °F 77% 30.04 in 10.0 mi NE 15.0 mph 24.2 mph 0.03 in   Mostly Cloudy
4:53 PM 78.1 °F - 71.1 °F 79% 30.06 in 10.0 mi ENE 20.7 mph 27.6 mph N/A   Overcast
5:11 PM 77.0 °F - 71.6 °F 83% 30.06 in 10.0 mi ENE 11.5 mph - N/A   Overcast
5:33 PM 75.2 °F - 73.4 °F 94% 30.07 in 3.0 mi NE 10.4 mph - 0.05 in Rain Rain
5:43 PM 75.2 °F - 73.4 °F 94% 30.07 in 7.0 mi NE 9.2 mph - 0.06 in Rain Light Rain
5:53 PM 75.0 °F - 73.0 °F 94% 30.06 in 10.0 mi NE 9.2 mph - 0.06 in   Overcast
6:29 PM 75.2 °F - 73.4 °F 94% 30.07 in 10.0 mi NE 5.8 mph - N/A   Mostly Cloudy
6:37 PM 75.2 °F - 73.4 °F 94% 30.07 in 10.0 mi ENE 5.8 mph - N/A   Scattered Clouds
6:53 PM 75.0 °F - 73.0 °F 94% 30.07 in 10.0 mi NE 8.1 mph - N/A   Mostly Cloudy
7:06 PM 75.2 °F - 73.4 °F 94% 30.08 in 8.0 mi ENE 9.2 mph - 0.00 in Rain Light Rain
7:22 PM 75.2 °F - 73.4 °F 94% 30.08 in 10.0 mi NE 8.1 mph - 0.00 in   Overcast
7:30 PM 75.2 °F - 73.4 °F 94% 30.08 in 10.0 mi NE 8.1 mph - 0.00 in   Overcast
7:41 PM 75.2 °F - 73.4 °F 94% 30.08 in 10.0 mi NNE 8.1 mph - 0.00 in   Overcast
7:53 PM 75.0 °F - 73.9 °F 96% 30.08 in 5.0 mi NE 10.4 mph - 0.00 in   Overcast
8:08 PM 75.2 °F - 73.4 °F 94% 30.09 in 5.0 mi NE 6.9 mph - 0.01 in Rain Light Rain
8:16 PM 75.2 °F - 73.4 °F 94% 30.09 in 4.0 mi NE 6.9 mph - 0.01 in Rain Light Rain
8:25 PM 75.2 °F - 73.4 °F 94% 30.09 in 6.0 mi NE 10.4 mph - 0.01 in Rain Light Rain
8:41 PM 75.2 °F - 73.4 °F 94% 30.09 in 5.0 mi NE 9.2 mph - 0.02 in Rain Light Rain
8:53 PM 75.0 °F - 73.9 °F 96% 30.09 in 5.0 mi NNE 9.2 mph - 0.03 in Rain Light Rain
9:53 PM 75.0 °F - 73.9 °F 96% 30.09 in 4.0 mi East 5.8 mph - 0.12 in Rain Light Rain
10:29 PM 75.2 °F - 73.4 °F 94% 30.09 in 10.0 mi NE 10.4 mph - 0.04 in   Overcast
10:39 PM 75.2 °F - 73.4 °F 94% 30.09 in 9.0 mi NE 10.4 mph - 0.04 in Rain Light Rain
10:46 PM 75.2 °F - 73.4 °F 94% 30.09 in 10.0 mi NE 9.2 mph - 0.04 in Rain Light Rain
10:53 PM 75.0 °F - 73.9 °F 96% 30.09 in 10.0 mi NE 11.5 mph - 0.04 in   Overcast
11:37 PM 75.2 °F - 75.2 °F 100% 30.08 in 7.0 mi NE 11.5 mph - 0.05 in Rain Light Rain
11:53 PM 75.0 °F - 75.0 °F 100% 30.07 in 10.0 mi NE 11.5 mph - 0.05 in Rain Light Rain